Location: Dannhausen
(51.8650°N, 10.1026°E)
Time: 06:39:12
(UTC+00:00)

Cosmos 2233 Rocket - Pass Details

Date: 09 April 2020
Orbit: 952 x 991 km, 82.9° (Epoch: 02 June)

Event Time Altitude Azimuth Distance (km) Brightness Sun altitude
Rises 23:39:15 0° 349° (N) 3,706 8.1 -30.0°
Reaches altitude 10° 23:41:47 10° 349° (N) 2,749 7.2 -29.9°
Enters shadow 23:47:59 83° 291° (WNW) 989 3.9 -29.8°
